Torna al catalogo

COSMOS 1275 DEB

AttivoPO
NORAD 17631·DEBRIS·🇷🇺 Russia

Lanciato Jun 4, 1981 da Plesetsk Cosmodrome

Loading…

Prossimi Passaggi (prossime 24 ore)

TLE

AggiornatoSource: Space-Track

Epoca: Sep 14, 2026, 11:21 UTC

1 17631U 81053LA  26257.47340427  .00001112  00000-0  12267-2 0  9993
2 17631  82.9302 161.1456 0124635 198.4629 287.3635 13.67863759 53959

Traccia COSMOS 1275 DEB in tempo reale con AllMySat

Download on the App Store